Year,Month,Day,Hour,Minute,Value (Times are PST for windspeed in km/hr)
2016,10,14,00,00,13.90
2016,10,14,00,01,15.10
2016,10,14,00,02,12.50
2016,10,14,00,03,18.00
2016,10,14,00,04,13.40
2016,10,14,00,05,20.90
2016,10,14,00,06,18.40
2016,10,14,00,07,18.50
2016,10,14,00,08,18.40
2016,10,14,00,09,17.00
2016,10,14,00,10,18.70
2016,10,14,00,11,20.40
2016,10,14,00,12,17.90
2016,10,14,00,13,14.80
2016,10,14,00,14,22.00
2016,10,14,00,15,20.40
2016,10,14,00,16,26.10
2016,10,14,00,17,21.60
2016,10,14,00,18,25.70
2016,10,14,00,19,21.80
2016,10,14,00,20,27.60
2016,10,14,00,21,28.00
2016,10,14,00,22,26.30
2016,10,14,00,23,24.80
2016,10,14,00,24,26.00
2016,10,14,00,25,24.40
2016,10,14,00,26,26.00
2016,10,14,00,27,19.10
2016,10,14,00,28,20.00
2016,10,14,00,29,14.20
2016,10,14,00,30,17.10
2016,10,14,00,31,20.20
2016,10,14,00,32,20.80
2016,10,14,00,33,22.50
2016,10,14,00,34,22.10
2016,10,14,00,35,20.30
2016,10,14,00,36,20.50
2016,10,14,00,37,17.80
2016,10,14,00,38,19.20
2016,10,14,00,39,21.20
2016,10,14,00,40,22.40
2016,10,14,00,41,21.40
2016,10,14,00,42,24.50
2016,10,14,00,43,23.80
2016,10,14,00,44,19.90
2016,10,14,00,45,22.80
2016,10,14,00,46,15.80
2016,10,14,00,47,20.30
2016,10,14,00,48,17.10
2016,10,14,00,49,15.30
2016,10,14,00,50,16.50
2016,10,14,00,51,23.90
2016,10,14,00,52,21.90
2016,10,14,00,53,17.30
2016,10,14,00,54,18.50
2016,10,14,00,55,17.30
2016,10,14,00,56,18.50
2016,10,14,00,57,23.30
2016,10,14,00,58,22.90
2016,10,14,00,59,19.80
2016,10,14,01,00,23.70
2016,10,14,01,01,23.70
2016,10,14,01,02,26.40
2016,10,14,01,03,17.90
2016,10,14,01,04,21.60
2016,10,14,01,05,24.70
2016,10,14,01,06,24.40
2016,10,14,01,07,20.60
2016,10,14,01,08,19.60
2016,10,14,01,09,25.30
2016,10,14,01,10,27.20
2016,10,14,01,11,22.40
2016,10,14,01,12,25.70
2016,10,14,01,13,17.90
2016,10,14,01,14,30.10
2016,10,14,01,15,23.30
2016,10,14,01,16,25.20
2016,10,14,01,17,20.30
2016,10,14,01,18,19.60
2016,10,14,01,19,16.30
2016,10,14,01,20,22.80
2016,10,14,01,21,28.20
2016,10,14,01,22,23.70
2016,10,14,01,23,14.20
2016,10,14,01,24,14.10
2016,10,14,01,25,15.20
2016,10,14,01,26,9.30
2016,10,14,01,27,9.80
2016,10,14,01,28,10.90
2016,10,14,01,29,7.30
2016,10,14,01,30,9.80
2016,10,14,01,31,11.80
2016,10,14,01,32,9.90
2016,10,14,01,33,13.00
2016,10,14,01,34,13.90
2016,10,14,01,35,11.90
2016,10,14,01,36,13.00
2016,10,14,01,37,8.30
2016,10,14,01,38,6.90
2016,10,14,01,39,8.10
2016,10,14,01,40,6.40
2016,10,14,01,41,8.40
2016,10,14,01,42,3.40
2016,10,14,01,43,4.30
2016,10,14,01,44,3.50
2016,10,14,01,45,8.10
2016,10,14,01,46,6.40
2016,10,14,01,47,5.60
2016,10,14,01,48,9.50
2016,10,14,01,49,10.00
2016,10,14,01,50,9.80
2016,10,14,01,51,8.50
2016,10,14,01,52,6.10
2016,10,14,01,53,5.40
2016,10,14,01,54,9.00
2016,10,14,01,55,8.40
2016,10,14,01,56,8.10
2016,10,14,01,57,9.00
2016,10,14,01,58,9.10
2016,10,14,01,59,6.10
2016,10,14,02,00,7.20
2016,10,14,02,01,7.10
2016,10,14,02,02,7.70
2016,10,14,02,03,7.00
2016,10,14,02,04,7.60
2016,10,14,02,05,5.30
2016,10,14,02,06,2.10
2016,10,14,02,07,3.00
2016,10,14,02,08,5.70
2016,10,14,02,09,0.90
2016,10,14,02,10,0.00
2016,10,14,02,11,0.00
2016,10,14,02,12,1.40
2016,10,14,02,13,1.70
2016,10,14,02,14,3.30
2016,10,14,02,15,6.30
2016,10,14,02,16,8.30
2016,10,14,02,17,8.20
2016,10,14,02,18,6.40
2016,10,14,02,19,3.00
2016,10,14,02,20,1.50
2016,10,14,02,21,6.70
2016,10,14,02,22,6.20
2016,10,14,02,23,6.10
2016,10,14,02,24,3.00
2016,10,14,02,25,3.90
2016,10,14,02,26,3.50
2016,10,14,02,27,4.00
2016,10,14,02,28,2.20
2016,10,14,02,29,2.30
2016,10,14,02,30,2.50
2016,10,14,02,31,2.70
2016,10,14,02,32,3.90
2016,10,14,02,33,1.60
2016,10,14,02,34,3.10
2016,10,14,02,35,3.00
2016,10,14,02,36,2.70
2016,10,14,02,37,5.40
2016,10,14,02,38,5.40
2016,10,14,02,39,3.00
2016,10,14,02,40,2.10
2016,10,14,02,41,3.40
2016,10,14,02,42,3.60
2016,10,14,02,43,3.90
2016,10,14,02,44,5.90
2016,10,14,02,45,6.70
2016,10,14,02,46,6.40
2016,10,14,02,47,4.90
2016,10,14,02,48,5.20
2016,10,14,02,49,3.60
2016,10,14,02,50,1.00
2016,10,14,02,51,0.80
2016,10,14,02,52,3.00
2016,10,14,02,53,0.60
2016,10,14,02,54,0.00
2016,10,14,02,55,2.70
2016,10,14,02,56,4.90
2016,10,14,02,57,4.30
2016,10,14,02,58,5.80
2016,10,14,02,59,6.00
2016,10,14,03,00,6.00
2016,10,14,03,01,2.60
2016,10,14,03,02,1.80
2016,10,14,03,03,3.50
2016,10,14,03,04,3.40
2016,10,14,03,05,3.00
2016,10,14,03,06,2.50
2016,10,14,03,07,2.30
2016,10,14,03,08,3.60
2016,10,14,03,09,6.10
2016,10,14,03,10,8.40
2016,10,14,03,11,8.40
2016,10,14,03,12,9.30
2016,10,14,03,13,7.50
2016,10,14,03,14,7.50
2016,10,14,03,15,5.00
2016,10,14,03,16,5.50
2016,10,14,03,17,7.60
2016,10,14,03,18,4.40
2016,10,14,03,19,6.50
2016,10,14,03,20,6.90
2016,10,14,03,21,10.00
2016,10,14,03,22,7.40
2016,10,14,03,23,10.00
2016,10,14,03,24,8.00
2016,10,14,03,25,11.90
2016,10,14,03,26,16.60
2016,10,14,03,27,13.60
2016,10,14,03,28,11.30
2016,10,14,03,29,11.80
2016,10,14,03,30,10.70
2016,10,14,03,31,10.80
2016,10,14,03,32,12.60
2016,10,14,03,33,13.90
2016,10,14,03,34,13.20
2016,10,14,03,35,11.70
2016,10,14,03,36,13.60
2016,10,14,03,37,14.60
2016,10,14,03,38,13.80
2016,10,14,03,39,10.90
2016,10,14,03,40,7.20
2016,10,14,03,41,6.30
2016,10,14,03,42,7.90
2016,10,14,03,43,1.60
2016,10,14,03,44,4.70
2016,10,14,03,45,9.80
2016,10,14,03,46,9.70
2016,10,14,03,47,12.70
2016,10,14,03,48,8.90
2016,10,14,03,49,5.40
2016,10,14,03,50,8.40
2016,10,14,03,51,4.50
2016,10,14,03,52,5.00
2016,10,14,03,53,7.60
2016,10,14,03,54,11.60
2016,10,14,03,55,5.10
2016,10,14,03,56,5.70
2016,10,14,03,57,9.30
2016,10,14,03,58,6.90
2016,10,14,03,59,7.10
2016,10,14,04,00,3.50
2016,10,14,04,01,4.50
2016,10,14,04,02,4.10
2016,10,14,04,03,7.80
2016,10,14,04,04,5.60
2016,10,14,04,05,4.80
2016,10,14,04,06,5.70
2016,10,14,04,07,6.80
2016,10,14,04,08,11.60
2016,10,14,04,09,16.90
2016,10,14,04,10,8.70
2016,10,14,04,11,13.30
2016,10,14,04,12,16.70
2016,10,14,04,13,12.80
2016,10,14,04,14,12.60
2016,10,14,04,15,8.40
2016,10,14,04,16,13.80
2016,10,14,04,17,13.20
2016,10,14,04,18,12.90
2016,10,14,04,19,10.60
2016,10,14,04,20,10.90
2016,10,14,04,21,14.20
2016,10,14,04,22,11.30
2016,10,14,04,23,19.30
2016,10,14,04,24,9.50
2016,10,14,04,25,9.10
2016,10,14,04,26,5.00
2016,10,14,04,27,5.60
2016,10,14,04,28,5.50
2016,10,14,04,29,6.50
2016,10,14,04,30,8.60
2016,10,14,04,31,9.70
2016,10,14,04,32,11.90
2016,10,14,04,33,10.10
2016,10,14,04,34,6.80
2016,10,14,04,35,3.30
2016,10,14,04,36,7.70
2016,10,14,04,37,6.80
2016,10,14,04,38,14.50
2016,10,14,04,39,13.30
2016,10,14,04,40,9.40
2016,10,14,04,41,5.80
2016,10,14,04,42,12.70
2016,10,14,04,43,12.80
2016,10,14,04,44,13.60
2016,10,14,04,45,18.10
2016,10,14,04,46,25.60
2016,10,14,04,47,25.80
2016,10,14,04,48,17.20
2016,10,14,04,49,13.80
2016,10,14,04,50,12.50
2016,10,14,04,51,12.40
2016,10,14,04,52,13.80
2016,10,14,04,53,17.90
2016,10,14,04,54,19.60
2016,10,14,04,55,22.20
2016,10,14,04,56,25.80
2016,10,14,04,57,23.30
2016,10,14,04,58,20.60
2016,10,14,04,59,18.70
2016,10,14,05,00,24.50
2016,10,14,05,01,19.90
2016,10,14,05,02,20.50
2016,10,14,05,03,17.90
2016,10,14,05,04,24.30
2016,10,14,05,05,19.60
2016,10,14,05,06,22.20
2016,10,14,05,07,23.30
2016,10,14,05,08,22.30
2016,10,14,05,09,23.50
2016,10,14,05,10,22.60
2016,10,14,05,11,17.80
2016,10,14,05,12,14.10
2016,10,14,05,13,17.80
2016,10,14,05,14,18.80
2016,10,14,05,15,20.60
2016,10,14,05,16,25.80
2016,10,14,05,17,16.30
2016,10,14,05,18,21.30
2016,10,14,05,19,21.80
2016,10,14,05,20,10.90
2016,10,14,05,21,22.20
2016,10,14,05,22,19.80
2016,10,14,05,23,19.20
2016,10,14,05,24,19.90
2016,10,14,05,25,15.40
2016,10,14,05,26,7.60
2016,10,14,05,27,3.80
2016,10,14,05,28,9.10
2016,10,14,05,29,10.50
2016,10,14,05,30,18.10
2016,10,14,05,31,6.70
2016,10,14,05,32,5.60
2016,10,14,05,33,7.70
2016,10,14,05,34,14.10
2016,10,14,05,35,11.00
2016,10,14,05,36,5.80
2016,10,14,05,37,9.30
2016,10,14,05,38,6.00
2016,10,14,05,39,10.60
2016,10,14,05,40,16.70
2016,10,14,05,41,9.80
2016,10,14,05,42,5.20
2016,10,14,05,43,13.00
2016,10,14,05,44,17.90
2016,10,14,05,45,13.90
2016,10,14,05,46,11.00
2016,10,14,05,47,13.10
2016,10,14,05,48,13.30
2016,10,14,05,49,12.70
2016,10,14,05,50,16.20
2016,10,14,05,51,11.60
2016,10,14,05,52,7.90
2016,10,14,05,53,17.00
2016,10,14,05,54,8.10
2016,10,14,05,55,11.90
2016,10,14,05,56,10.80
2016,10,14,05,57,8.00
2016,10,14,05,58,10.20
2016,10,14,05,59,12.00
2016,10,14,06,00,13.40
2016,10,14,06,01,11.70
2016,10,14,06,02,11.90
2016,10,14,06,03,9.70
2016,10,14,06,04,11.00
2016,10,14,06,05,15.70
2016,10,14,06,06,10.10
2016,10,14,06,07,9.30
2016,10,14,06,08,16.70
2016,10,14,06,09,12.70
2016,10,14,06,10,14.30
2016,10,14,06,11,11.70
2016,10,14,06,12,12.80
2016,10,14,06,13,20.40
2016,10,14,06,14,12.90
2016,10,14,06,15,14.50
2016,10,14,06,16,10.70
2016,10,14,06,17,14.80
2016,10,14,06,18,12.00
2016,10,14,06,19,13.10
2016,10,14,06,20,14.80
2016,10,14,06,21,18.30
2016,10,14,06,22,18.40
2016,10,14,06,23,23.60
2016,10,14,06,24,19.30
2016,10,14,06,25,13.20
2016,10,14,06,26,20.80
2016,10,14,06,27,27.20
2016,10,14,06,28,25.40
2016,10,14,06,29,22.30
2016,10,14,06,30,21.90
2016,10,14,06,31,17.40
2016,10,14,06,32,22.90
2016,10,14,06,33,22.00
2016,10,14,06,34,20.40
2016,10,14,06,35,19.90
2016,10,14,06,36,19.40
2016,10,14,06,37,20.40
2016,10,14,06,38,22.80
2016,10,14,06,39,19.70
2016,10,14,06,40,22.60
2016,10,14,06,41,26.20
2016,10,14,06,42,22.80
2016,10,14,06,43,21.40
2016,10,14,06,44,24.80
2016,10,14,06,45,20.10
2016,10,14,06,46,25.90
2016,10,14,06,47,23.60
2016,10,14,06,48,15.30
2016,10,14,06,49,19.80
2016,10,14,06,50,20.80
2016,10,14,06,51,19.70
2016,10,14,06,52,15.00
2016,10,14,06,53,22.40
2016,10,14,06,54,19.20
2016,10,14,06,55,23.80
2016,10,14,06,56,20.10
2016,10,14,06,57,13.70
2016,10,14,06,58,18.60
2016,10,14,06,59,16.70
2016,10,14,07,00,21.60
2016,10,14,07,01,8.30
2016,10,14,07,02,6.90
2016,10,14,07,03,5.50
2016,10,14,07,04,12.80
2016,10,14,07,05,21.90
2016,10,14,07,06,25.10
2016,10,14,07,07,15.20
2016,10,14,07,08,17.50
2016,10,14,07,09,21.90
2016,10,14,07,10,21.90
2016,10,14,07,11,26.20
2016,10,14,07,12,22.70
2016,10,14,07,13,19.70
2016,10,14,07,14,28.60
2016,10,14,07,15,26.20
2016,10,14,07,16,17.60
2016,10,14,07,17,22.00
2016,10,14,07,18,26.90
2016,10,14,07,19,20.40
2016,10,14,07,20,20.90
2016,10,14,07,21,26.10
2016,10,14,07,22,24.50
2016,10,14,07,23,20.80
2016,10,14,07,24,21.20
2016,10,14,07,25,22.80
2016,10,14,07,26,13.90
2016,10,14,07,27,12.00
2016,10,14,07,28,16.30
2016,10,14,07,29,12.80
2016,10,14,07,30,14.60
2016,10,14,07,31,13.40
2016,10,14,07,32,11.70
2016,10,14,07,33,13.00
2016,10,14,07,34,17.20
2016,10,14,07,35,13.80
2016,10,14,07,36,20.90
2016,10,14,07,37,18.20
2016,10,14,07,38,18.90
2016,10,14,07,39,22.10
2016,10,14,07,40,28.90
2016,10,14,07,41,19.80
2016,10,14,07,42,21.10
2016,10,14,07,43,24.80
2016,10,14,07,44,21.70
2016,10,14,07,45,20.80
2016,10,14,07,46,19.50
2016,10,14,07,47,14.00
2016,10,14,07,48,21.30
2016,10,14,07,49,22.90
2016,10,14,07,50,24.10
2016,10,14,07,51,25.00
2016,10,14,07,52,18.40
2016,10,14,07,53,24.00
2016,10,14,07,54,17.20
2016,10,14,07,55,17.90
2016,10,14,07,56,20.50
2016,10,14,07,57,23.60
2016,10,14,07,58,23.90
2016,10,14,07,59,19.80
2016,10,14,08,00,25.10
2016,10,14,08,01,20.40
2016,10,14,08,02,23.20
2016,10,14,08,03,26.30
2016,10,14,08,04,29.20
2016,10,14,08,05,27.70
2016,10,14,08,06,37.70
2016,10,14,08,07,29.90
2016,10,14,08,08,34.10
2016,10,14,08,09,30.00
2016,10,14,08,10,30.90
2016,10,14,08,11,26.10
2016,10,14,08,12,28.70
2016,10,14,08,13,23.60
2016,10,14,08,14,33.90
2016,10,14,08,15,31.70
2016,10,14,08,16,28.30
2016,10,14,08,17,27.50
2016,10,14,08,18,34.90
2016,10,14,08,19,32.70
2016,10,14,08,20,30.40
2016,10,14,08,21,23.60
2016,10,14,08,22,28.40
2016,10,14,08,23,32.00
2016,10,14,08,24,25.70
2016,10,14,08,25,34.30
2016,10,14,08,26,28.60
2016,10,14,08,27,28.10
2016,10,14,08,28,28.90
2016,10,14,08,29,28.60
2016,10,14,08,30,22.10
2016,10,14,08,31,18.70
2016,10,14,08,32,17.40
2016,10,14,08,33,20.50
2016,10,14,08,34,17.80
2016,10,14,08,35,17.10
2016,10,14,08,36,21.10
2016,10,14,08,37,16.30
2016,10,14,08,38,23.70
2016,10,14,08,39,24.00
2016,10,14,08,40,23.50
2016,10,14,08,41,19.90
2016,10,14,08,42,18.00
2016,10,14,08,43,16.60
2016,10,14,08,44,18.30
2016,10,14,08,45,18.70
2016,10,14,08,46,20.20
2016,10,14,08,47,25.20
2016,10,14,08,48,22.80
2016,10,14,08,49,26.70
2016,10,14,08,50,24.80
2016,10,14,08,51,21.50
2016,10,14,08,52,22.90
2016,10,14,08,53,22.10
2016,10,14,08,54,21.60
2016,10,14,08,55,21.80
2016,10,14,08,56,21.90
2016,10,14,08,57,8.40
2016,10,14,08,58,14.00
2016,10,14,08,59,10.60
2016,10,14,09,00,15.70
2016,10,14,09,01,12.00
2016,10,14,09,02,11.70
2016,10,14,09,03,13.00
2016,10,14,09,04,16.50
2016,10,14,09,05,16.80
2016,10,14,09,06,11.70
2016,10,14,09,07,15.20
2016,10,14,09,08,13.00
2016,10,14,09,09,9.50
2016,10,14,09,10,8.80
2016,10,14,09,11,8.50
2016,10,14,09,12,6.90
2016,10,14,09,13,6.00
2016,10,14,09,14,6.80
2016,10,14,09,15,5.60
2016,10,14,09,16,5.80
2016,10,14,09,17,7.50
2016,10,14,09,18,7.20
2016,10,14,09,19,5.60
2016,10,14,09,20,3.60
2016,10,14,09,21,6.00
2016,10,14,09,22,5.40
2016,10,14,09,23,8.80
2016,10,14,09,24,8.30
2016,10,14,09,25,5.70
2016,10,14,09,26,9.40
2016,10,14,09,27,9.40
2016,10,14,09,28,12.10
2016,10,14,09,29,11.70
2016,10,14,09,30,9.30
2016,10,14,09,31,12.50
2016,10,14,09,32,9.10
2016,10,14,09,33,9.00
2016,10,14,09,34,11.40
2016,10,14,09,35,11.60
2016,10,14,09,36,10.00
2016,10,14,09,37,8.80
2016,10,14,09,38,9.30
2016,10,14,09,39,10.10
2016,10,14,09,40,5.80
2016,10,14,09,41,5.30
2016,10,14,09,42,12.80
2016,10,14,09,43,11.30
2016,10,14,09,44,13.70
2016,10,14,09,45,19.00
2016,10,14,09,46,14.20
2016,10,14,09,47,16.90
2016,10,14,09,48,15.40
2016,10,14,09,49,6.30
2016,10,14,09,50,5.90
2016,10,14,09,51,8.00
2016,10,14,09,52,6.90
2016,10,14,09,53,6.50
2016,10,14,09,54,13.30
2016,10,14,09,55,10.10
2016,10,14,09,56,8.80
2016,10,14,09,57,14.60
2016,10,14,09,58,13.90
2016,10,14,09,59,10.50
2016,10,14,10,00,11.70
2016,10,14,10,01,11.40
2016,10,14,10,02,10.70
2016,10,14,10,03,12.30
2016,10,14,10,04,7.60
2016,10,14,10,05,16.80
2016,10,14,10,06,19.20
2016,10,14,10,07,18.00
2016,10,14,10,08,8.00
2016,10,14,10,09,10.10
2016,10,14,10,10,13.80
2016,10,14,10,11,9.40
2016,10,14,10,12,17.70
2016,10,14,10,13,20.50
2016,10,14,10,14,14.10
2016,10,14,10,15,17.90
2016,10,14,10,16,15.50
2016,10,14,10,17,15.80
2016,10,14,10,18,12.60
2016,10,14,10,19,13.30
2016,10,14,10,20,17.20
2016,10,14,10,21,24.00
2016,10,14,10,22,19.10
2016,10,14,10,23,16.70
2016,10,14,10,24,20.80
2016,10,14,10,25,28.60
2016,10,14,10,26,16.00
2016,10,14,10,27,23.30
2016,10,14,10,28,15.70
2016,10,14,10,29,15.30
2016,10,14,10,30,12.40
2016,10,14,10,31,19.30
2016,10,14,10,32,24.30
2016,10,14,10,33,22.80
2016,10,14,10,34,20.00
2016,10,14,10,35,21.50
2016,10,14,10,36,16.00
2016,10,14,10,37,25.30
2016,10,14,10,38,18.00
2016,10,14,10,39,14.40
2016,10,14,10,40,15.80
2016,10,14,10,41,18.90
2016,10,14,10,42,17.90
2016,10,14,10,43,20.20
2016,10,14,10,44,13.40
2016,10,14,10,45,27.80
2016,10,14,10,46,20.80
2016,10,14,10,47,17.30
2016,10,14,10,48,22.70
2016,10,14,10,49,17.50
2016,10,14,10,50,21.60
2016,10,14,10,51,19.10
2016,10,14,10,52,17.10
2016,10,14,10,53,16.40
2016,10,14,10,54,19.40
2016,10,14,10,55,15.20
2016,10,14,10,56,13.40
2016,10,14,10,57,13.30
2016,10,14,10,58,11.70
2016,10,14,10,59,8.60
2016,10,14,11,00,16.60
2016,10,14,11,01,16.20
2016,10,14,11,02,13.70
2016,10,14,11,03,12.90
2016,10,14,11,04,13.20
2016,10,14,11,05,15.10
2016,10,14,11,06,12.50
2016,10,14,11,07,16.40
2016,10,14,11,08,23.70
2016,10,14,11,09,22.00
2016,10,14,11,10,24.40
2016,10,14,11,11,23.30
2016,10,14,11,12,18.90
2016,10,14,11,13,25.70
2016,10,14,11,14,14.90
2016,10,14,11,15,14.90
2016,10,14,11,16,25.80
2016,10,14,11,17,22.60
2016,10,14,11,18,21.90
2016,10,14,11,19,18.60
2016,10,14,11,20,17.90
2016,10,14,11,21,16.40
2016,10,14,11,22,17.20
2016,10,14,11,23,19.30
2016,10,14,11,24,25.60
2016,10,14,11,25,16.70
2016,10,14,11,26,19.40
2016,10,14,11,27,16.10
2016,10,14,11,28,17.20
2016,10,14,11,29,20.80
2016,10,14,11,30,14.60
2016,10,14,11,31,19.50
2016,10,14,11,32,20.70
2016,10,14,11,33,14.10
2016,10,14,11,34,31.40
2016,10,14,11,35,15.40
2016,10,14,11,36,24.10
2016,10,14,11,37,21.40
2016,10,14,11,38,17.40
2016,10,14,11,39,23.30
2016,10,14,11,40,21.70
2016,10,14,11,41,27.30
2016,10,14,11,42,23.90
2016,10,14,11,43,25.80
2016,10,14,11,44,29.30
2016,10,14,11,45,12.60
2016,10,14,11,46,21.90
2016,10,14,11,47,14.10
2016,10,14,11,48,24.60
2016,10,14,11,49,12.90
2016,10,14,11,50,24.60
2016,10,14,11,51,17.90
2016,10,14,11,52,15.60
2016,10,14,11,53,20.70
2016,10,14,11,54,21.00
2016,10,14,11,55,13.00
2016,10,14,11,56,17.90
2016,10,14,11,57,12.50
2016,10,14,11,58,15.10
2016,10,14,11,59,13.50
2016,10,14,12,00,17.50
2016,10,14,12,01,21.50
2016,10,14,12,02,19.90
2016,10,14,12,03,13.40
2016,10,14,12,04,19.10
2016,10,14,12,05,20.70
2016,10,14,12,06,20.00
2016,10,14,12,07,16.30
2016,10,14,12,08,21.20
2016,10,14,12,09,19.50
2016,10,14,12,10,21.60
2016,10,14,12,11,18.20
2016,10,14,12,12,11.30
2016,10,14,12,13,22.50
2016,10,14,12,14,28.70
2016,10,14,12,15,14.20
2016,10,14,12,16,21.70
2016,10,14,12,17,18.70
2016,10,14,12,18,14.40
2016,10,14,12,19,25.80
2016,10,14,12,20,20.20
2016,10,14,12,21,16.70
2016,10,14,12,22,22.20
2016,10,14,12,23,18.00
2016,10,14,12,24,16.80
2016,10,14,12,25,15.00
2016,10,14,12,26,20.40
2016,10,14,12,27,26.70
2016,10,14,12,28,22.30
2016,10,14,12,29,18.60
2016,10,14,12,30,16.10
2016,10,14,12,31,16.90
2016,10,14,12,32,12.60
2016,10,14,12,33,27.00
2016,10,14,12,34,18.40
2016,10,14,12,35,15.30
2016,10,14,12,36,22.10
2016,10,14,12,37,17.50
2016,10,14,12,38,24.90
2016,10,14,12,39,15.50
2016,10,14,12,40,19.40
2016,10,14,12,41,19.30
2016,10,14,12,42,18.60
2016,10,14,12,43,19.60
2016,10,14,12,44,18.40
2016,10,14,12,45,27.30
2016,10,14,12,46,23.60
2016,10,14,12,47,23.10
2016,10,14,12,48,17.60
2016,10,14,12,49,17.50
2016,10,14,12,50,21.50
2016,10,14,12,51,28.00
2016,10,14,12,52,29.00
2016,10,14,12,53,29.20
2016,10,14,12,54,21.20
2016,10,14,12,55,17.20
2016,10,14,12,56,28.40
2016,10,14,12,57,20.60
2016,10,14,12,58,27.80
2016,10,14,12,59,19.20
2016,10,14,13,00,32.50
2016,10,14,13,01,24.80
2016,10,14,13,02,29.80
2016,10,14,13,03,29.90
2016,10,14,13,04,33.60
2016,10,14,13,05,19.40
2016,10,14,13,06,23.20
2016,10,14,13,07,17.20
2016,10,14,13,08,27.40
2016,10,14,13,09,30.60
2016,10,14,13,10,15.80
2016,10,14,13,11,18.70
2016,10,14,13,12,20.80
2016,10,14,13,13,22.70
2016,10,14,13,14,19.40
2016,10,14,13,15,23.90
2016,10,14,13,16,25.40
2016,10,14,13,17,19.40
2016,10,14,13,18,30.80
2016,10,14,13,19,29.80
2016,10,14,13,20,24.40
2016,10,14,13,21,22.20
2016,10,14,13,22,25.30
2016,10,14,13,23,21.50
2016,10,14,13,24,26.40
2016,10,14,13,25,33.30
2016,10,14,13,26,23.10
2016,10,14,13,27,34.80
2016,10,14,13,28,31.60
2016,10,14,13,29,22.90
2016,10,14,13,30,22.60
2016,10,14,13,31,22.80
2016,10,14,13,32,22.90
2016,10,14,13,33,23.80
2016,10,14,13,34,29.20
2016,10,14,13,35,18.20
2016,10,14,13,36,25.80
2016,10,14,13,37,24.10
2016,10,14,13,38,16.70
2016,10,14,13,39,24.80
2016,10,14,13,40,25.80
2016,10,14,13,41,26.40
2016,10,14,13,42,27.10
2016,10,14,13,43,25.70
2016,10,14,13,44,27.00
2016,10,14,13,45,32.00
2016,10,14,13,46,29.00
2016,10,14,13,47,23.50
2016,10,14,13,48,25.90
2016,10,14,13,49,24.20
2016,10,14,13,50,23.90
2016,10,14,13,51,17.90
2016,10,14,13,52,23.10
2016,10,14,13,53,30.20
2016,10,14,13,54,31.70
2016,10,14,13,55,26.10
2016,10,14,13,56,24.90
2016,10,14,13,57,24.90
2016,10,14,13,58,35.60
2016,10,14,13,59,22.60
2016,10,14,14,00,14.30
2016,10,14,14,01,27.50
2016,10,14,14,02,26.40
2016,10,14,14,03,25.60
2016,10,14,14,04,32.80
2016,10,14,14,05,30.20
2016,10,14,14,06,22.60
2016,10,14,14,07,23.70
2016,10,14,14,08,32.00
2016,10,14,14,09,28.00
2016,10,14,14,10,24.50
2016,10,14,14,11,24.60
2016,10,14,14,12,31.80
2016,10,14,14,13,28.20
2016,10,14,14,14,22.30
2016,10,14,14,15,26.60
2016,10,14,14,16,24.60
2016,10,14,14,17,27.50
2016,10,14,14,18,25.70
2016,10,14,14,19,22.50
2016,10,14,14,20,30.30
2016,10,14,14,21,24.30
2016,10,14,14,22,29.30
2016,10,14,14,23,24.10
2016,10,14,14,24,22.20
2016,10,14,14,25,32.40
2016,10,14,14,26,26.10
2016,10,14,14,27,24.40
2016,10,14,14,28,27.90
2016,10,14,14,29,26.60
2016,10,14,14,30,18.50
2016,10,14,14,31,23.70
2016,10,14,14,32,24.80
2016,10,14,14,33,24.90
2016,10,14,14,34,25.50
2016,10,14,14,35,17.30
2016,10,14,14,36,20.20
2016,10,14,14,37,24.90
2016,10,14,14,38,22.90
2016,10,14,14,39,30.40
2016,10,14,14,40,25.70
2016,10,14,14,41,32.60
2016,10,14,14,42,32.40
2016,10,14,14,43,26.20
2016,10,14,14,44,17.90
2016,10,14,14,45,20.00
2016,10,14,14,46,20.70
2016,10,14,14,47,19.30
2016,10,14,14,48,30.50
2016,10,14,14,49,17.10
2016,10,14,14,50,20.00
2016,10,14,14,51,21.20
2016,10,14,14,52,13.20
2016,10,14,14,53,16.80
2016,10,14,14,54,20.00
2016,10,14,14,55,16.70
2016,10,14,14,56,10.60
2016,10,14,14,57,11.30
2016,10,14,14,58,20.40
2016,10,14,14,59,17.70
2016,10,14,15,00,19.40
2016,10,14,15,01,16.90
2016,10,14,15,02,16.40
2016,10,14,15,03,11.00
2016,10,14,15,04,10.30
2016,10,14,15,05,10.40
2016,10,14,15,06,10.50
2016,10,14,15,07,17.70
2016,10,14,15,08,15.30
2016,10,14,15,09,9.60
2016,10,14,15,10,8.90
2016,10,14,15,11,9.80
2016,10,14,15,12,13.50
2016,10,14,15,13,5.60
2016,10,14,15,14,4.90
2016,10,14,15,15,5.80
2016,10,14,15,16,12.60
2016,10,14,15,17,9.90
2016,10,14,15,18,11.40
2016,10,14,15,19,11.80
2016,10,14,15,20,15.30
2016,10,14,15,21,15.20
2016,10,14,15,22,18.70
2016,10,14,15,23,14.50
2016,10,14,15,24,14.20
2016,10,14,15,25,20.70
2016,10,14,15,26,14.00
2016,10,14,15,27,16.30
2016,10,14,15,28,17.40
2016,10,14,15,29,19.80
2016,10,14,15,30,18.70
2016,10,14,15,31,22.90
2016,10,14,15,32,16.30
2016,10,14,15,33,11.20
2016,10,14,15,34,13.90
2016,10,14,15,35,18.90
2016,10,14,15,36,19.70
2016,10,14,15,37,18.60
2016,10,14,15,38,13.90
2016,10,14,15,39,11.20
2016,10,14,15,40,13.80
2016,10,14,15,41,20.80
2016,10,14,15,42,20.80
2016,10,14,15,43,16.00
2016,10,14,15,44,19.80
2016,10,14,15,45,12.80
2016,10,14,15,46,12.70
2016,10,14,15,47,18.30
2016,10,14,15,48,8.60
2016,10,14,15,49,10.60
2016,10,14,15,50,17.50
2016,10,14,15,51,18.80
2016,10,14,15,52,17.80
2016,10,14,15,53,16.80
2016,10,14,15,54,20.00
2016,10,14,15,55,17.40
2016,10,14,15,56,19.30
2016,10,14,15,57,17.50
2016,10,14,15,58,15.40
2016,10,14,15,59,15.30
2016,10,14,16,00,16.90
2016,10,14,16,01,13.40
2016,10,14,16,02,13.60
2016,10,14,16,03,12.60
2016,10,14,16,04,12.10
2016,10,14,16,05,12.60
2016,10,14,16,06,9.30
2016,10,14,16,07,12.90
2016,10,14,16,08,12.00
2016,10,14,16,09,14.20
2016,10,14,16,10,10.60
2016,10,14,16,11,12.40
2016,10,14,16,12,5.70
2016,10,14,16,13,10.10
2016,10,14,16,14,13.90
2016,10,14,16,15,12.10
2016,10,14,16,16,11.50
2016,10,14,16,17,23.50
2016,10,14,16,18,15.20
2016,10,14,16,19,19.70
2016,10,14,16,20,7.20
2016,10,14,16,21,4.40
2016,10,14,16,22,8.00
2016,10,14,16,23,8.50
2016,10,14,16,24,8.10
2016,10,14,16,25,6.60
2016,10,14,16,26,6.00
2016,10,14,16,27,9.30
2016,10,14,16,28,4.10
2016,10,14,16,29,6.20
2016,10,14,16,30,6.80
2016,10,14,16,31,2.30
2016,10,14,16,32,2.50
2016,10,14,16,33,4.40
2016,10,14,16,34,3.10
2016,10,14,16,35,5.80
2016,10,14,16,36,3.10
2016,10,14,16,37,6.60
2016,10,14,16,38,8.70
2016,10,14,16,39,5.10
2016,10,14,16,40,2.40
2016,10,14,16,41,4.10
2016,10,14,16,42,14.00
2016,10,14,16,43,16.80
2016,10,14,16,44,5.50
2016,10,14,16,45,1.40
2016,10,14,16,46,5.40
2016,10,14,16,47,6.70
2016,10,14,16,48,5.10
2016,10,14,16,49,1.90
2016,10,14,16,50,1.20
2016,10,14,16,51,3.70
2016,10,14,16,52,3.30
2016,10,14,16,53,6.40
2016,10,14,16,54,6.00
2016,10,14,16,55,4.90
2016,10,14,16,56,8.70
2016,10,14,16,57,5.70
2016,10,14,16,58,6.80
2016,10,14,16,59,7.40
2016,10,14,17,00,8.70
2016,10,14,17,01,4.80
2016,10,14,17,02,3.00
2016,10,14,17,03,6.00
2016,10,14,17,04,8.00
2016,10,14,17,05,6.80
2016,10,14,17,06,3.40
2016,10,14,17,07,5.40
2016,10,14,17,08,4.60
2016,10,14,17,09,3.40
2016,10,14,17,10,3.20
2016,10,14,17,11,5.20
2016,10,14,17,12,3.80
2016,10,14,17,13,3.00
2016,10,14,17,14,14.60
2016,10,14,17,15,12.80
2016,10,14,17,16,13.80
2016,10,14,17,17,9.00
2016,10,14,17,18,8.10
2016,10,14,17,19,6.70
2016,10,14,17,20,5.10
2016,10,14,17,21,3.70
2016,10,14,17,22,7.60
2016,10,14,17,23,7.90
2016,10,14,17,24,6.80
2016,10,14,17,25,7.80
2016,10,14,17,26,6.40
2016,10,14,17,27,4.00
2016,10,14,17,28,1.40
2016,10,14,17,29,0.00
2016,10,14,17,30,0.00
2016,10,14,17,31,0.00